Le nostre stazioni meteo in Italia

Pubblicità
Il mio iltempo24.it
Messina, Italia (16420): Temperatura & dewpoint: 11.02.2019 13:00:00 - 17.02.2019 13:00:00 (CET)Messina, Italia (16420): velocità del vento: 11.02.2019 13:00:00 - 17.02.2019 13:00:00 (CET)Messina, Italia (16420): direzione del vento: 11.02.2019 13:00:00 - 17.02.2019 13:00:00 (CET)Messina, Italia (16420): reduced air pressure: 11.02.2019 13:00:00 - 17.02.2019 13:00:00 (CET)Messina, Italia (16420): visibility: 11.02.2019 13:00:00 - 17.02.2019 13:00:00 (CET)Messina, Italia (16420): ore di luce: 11.02.2019 13:00:00 - 17.02.2019 13:00:00 (CET)
Data & Tempo tt [°C] td [°C] ff [km/h] ff [kn] dd ppp [hPa] vv [km] sd [min]
17.02.2019 13:00:00 13,8 6,4 15 8 NNO 1028,6 10 60
17.02.2019 12:00:00 13,8 5,9 21 11 NO 1028,8 10 60
17.02.2019 11:00:00 13,2 5,4 24 13 NO 1028,8 10 48
17.02.2019 10:00:00 12,4 5,3 21 11 ONO 1028,7 10 18
17.02.2019 09:00:00 12,0 5,2 22 12 ONO 1028,6 10 12
17.02.2019 08:00:00 11,0 4,9 13 7 ONO 1028,7 10 0
17.02.2019 07:00:00 10,8 4,7 13 7 ONO 1028,7 10 -
17.02.2019 06:00:00 10,8 4,5 13 7 NO 1028,4 10 -
17.02.2019 05:00:00 11,2 4,4 13 7 NO 1028,3 10 -
17.02.2019 04:00:00 11,0 4,2 16 9 ONO 1028,6 10 -
17.02.2019 03:00:00 11,4 4,4 16 9 ONO 1028,6 10 -
17.02.2019 02:00:00 11,0 3,3 16 9 ONO 1028,8 10 -
17.02.2019 01:00:00 11,0 3,1 4 2 N 1028,8 10 -
17.02.2019 00:00:00 11,4 2,9 11 6 NO 1028,8 10 -
16.02.2019 23:00:00 11,4 3,2 16 9 ONO 1028,8 10 -
16.02.2019 22:00:00 11,2 3,7 8 4 NNO 1028,8 10 -
16.02.2019 21:00:00 10,8 3,4 11 6 ONO 1028,8 10 -
16.02.2019 20:00:00 11,0 3,3 11 6 NO 1028,5 10 -
16.02.2019 19:00:00 11,0 3,1 8 4 NO 1028,2 10 -
16.02.2019 18:00:00 11,2 2,2 5 3 ONO 1027,8 20 -
16.02.2019 17:00:00 12,0 -0,5 8 4 NNO 1027,6 20 30
16.02.2019 16:00:00 13,6 -0,4 9 5 NE 1027,6 20 60
16.02.2019 15:00:00 13,4 -0,3 13 7 NE 1027,6 20 30
16.02.2019 14:00:00 13,0 -0,3 9 5 NNE 1027,7 20 60
16.02.2019 13:00:00 12,8 -0,5 13 7 O 1027,8 20 60
16.02.2019 12:00:00 12,8 0,5 9 5 NNE 1027,9 20 60
16.02.2019 11:00:00 13,0 0,4 9 5 NNE 1027,8 20 60
16.02.2019 10:00:00 12,0 1,6 9 5 ENE 1027,8 20 60
16.02.2019 09:00:00 12,0 2,2 5 3 NNE 1027,7 20 42
16.02.2019 08:00:00 9,6 0,5 8 4 NNO 1025,7 20 0
16.02.2019 07:00:00 9,4 0,1 13 7 N 1025,7 20 -
16.02.2019 06:00:00 9,4 1,3 11 6 N 1025,2 10 -
16.02.2019 05:00:00 10,0 0,9 13 7 N 1024,7 10 -
16.02.2019 04:00:00 9,8 1,2 11 6 N 1024,7 10 -
16.02.2019 03:00:00 9,4 4,0 13 7 N 1024,7 10 -
16.02.2019 02:00:00 9,0 5,8 9 5 NNO 1024,7 10 -
16.02.2019 01:00:00 9,0 5,6 9 5 NO 1024,6 10 -
16.02.2019 00:00:00 9,0 5,8 9 5 NO 1024,4 10 -
15.02.2019 23:00:00 9,2 4,2 9 5 NNO 1024,0 10 -
15.02.2019 22:00:00 9,0 5,8 9 5 NO 1023,8 10 -
15.02.2019 21:00:00 9,2 6,8 8 4 NO 1023,7 10 -
15.02.2019 20:00:00 9,0 7,4 5 3 ONO 1023,9 4,0 -
15.02.2019 19:00:00 9,4 9,0 8 4 NNE 1023,7 4,0 -
15.02.2019 18:00:00 12,8 6,4 8 4 N 1022,6 10 0
15.02.2019 17:00:00 13,0 5,7 9 5 SO 1022,6 10 0
15.02.2019 16:00:00 13,4 4,3 9 5 N 1022,7 10 12
15.02.2019 15:00:00 14,0 4,9 13 7 NNO 1023,4 10 24
15.02.2019 14:00:00 14,0 8,4 15 8 NO 1023,5 10 18
15.02.2019 13:00:00 13,8 8,4 13 7 ONO 1023,6 10 0
15.02.2019 12:00:00 13,6 8,0 13 7 NO 1024,5 10 0
15.02.2019 11:00:00 13,4 8,1 18 10 NO 1025,6 10 42
15.02.2019 10:00:00 13,0 8,7 15 8 NO 1025,7 10 60
15.02.2019 09:00:00 13,2 8,5 13 7 NNO 1025,6 10 60
15.02.2019 08:00:00 12,4 8,9 15 8 NNO 1025,9 10 6
15.02.2019 07:00:00 12,2 8,7 18 10 ONO 1025,9 10 -
15.02.2019 06:00:00 12,0 8,5 15 8 NO 1026,2 10 -
15.02.2019 05:00:00 12,0 8,1 9 5 NNO 1026,5 10 -
15.02.2019 04:00:00 12,0 7,7 16 9 ONO 1026,7 10 -
15.02.2019 03:00:00 12,0 7,5 11 6 NO 1027,5 10 -
15.02.2019 02:00:00 11,6 6,9 8 4 N 1027,7 10 -
15.02.2019 01:00:00 11,6 6,3 16 9 NO 1027,7 10 -
15.02.2019 00:00:00 11,4 5,9 9 5 E 1027,9 10 -
14.02.2019 23:00:00 11,6 5,7 11 6 NNO 1028,1 10 -
14.02.2019 22:00:00 11,4 5,5 16 9 NO 1028,6 10 -
14.02.2019 21:00:00 11,4 6,1 9 5 SSE 1028,6 10 -
14.02.2019 20:00:00 11,4 5,5 15 8 NNE 1028,5 10 -
14.02.2019 19:00:00 11,2 5,1 18 10 N 1027,9 10 -
14.02.2019 18:00:00 11,4 3,9 22 12 N 1028,0 20 0
14.02.2019 17:00:00 11,6 1,8 21 11 NO 1028,6 20 48
14.02.2019 16:00:00 12,6 0,7 22 12 NO 1028,6 20 60
14.02.2019 15:00:00 13,0 0,1 18 10 NNO 1028,8 20 60
14.02.2019 14:00:00 12,8 -1,2 18 10 NNO 1028,8 20 60
14.02.2019 13:00:00 13,0 -1,7 18 10 N 1029,4 20 60
14.02.2019 12:00:00 12,4 -1,5 18 10 N 1029,6 20 60
14.02.2019 11:00:00 12,4 -0,8 13 7 E 1029,5 20 60
14.02.2019 10:00:00 11,8 -1,4 21 11 N 1029,4 20 60
14.02.2019 09:00:00 10,6 -1,4 13 7 OSO 1029,0 20 60
14.02.2019 08:00:00 10,0 -2,3 13 7 N 1028,7 18 24
14.02.2019 07:00:00 9,2 -2,4 13 7 NNO 1028,5 18 -
14.02.2019 06:00:00 9,0 -2,9 9 5 NNO 1028,2 18 -
14.02.2019 05:00:00 9,0 -4,5 11 6 N 1027,7 18 -
14.02.2019 04:00:00 9,0 -5,6 16 9 N 1027,5 18 -
14.02.2019 03:00:00 9,2 -6,2 16 9 N 1027,5 18 -
14.02.2019 02:00:00 9,2 -7,0 21 11 N 1027,5 18 -
14.02.2019 01:00:00 8,0 -8,1 21 11 N 1027,3 18 -
14.02.2019 00:00:00 9,4 -8,2 21 11 NE 1026,9 18 -
13.02.2019 23:00:00 9,4 -7,7 21 11 NE 1026,8 18 -
13.02.2019 22:00:00 9,6 -6,7 24 13 ENE 1026,7 10 -
13.02.2019 21:00:00 9,8 -6,5 21 11 NNE 1026,7 16 -
13.02.2019 20:00:00 10,0 -8,1 21 11 NNE 1026,0 16 -
13.02.2019 19:00:00 10,6 -6,7 18 10 N 1025,2 16 -
13.02.2019 18:00:00 10,8 -7,0 18 10 N 1024,8 20 0
13.02.2019 17:00:00 10,4 -6,4 18 10 NNO 1025,0 20 0
13.02.2019 16:00:00 10,8 -7,4 16 9 NO 1025,3 20 36
13.02.2019 15:00:00 11,2 -7,1 22 12 NNO 1025,6 20 48
13.02.2019 14:00:00 11,0 -6,4 22 12 N 1025,7 20 60
13.02.2019 13:00:00 11,2 -6,8 22 12 N 1025,9 20 60
13.02.2019 12:00:00 11,0 -6,8 28 15 NNE 1026,4 20 60
13.02.2019 11:00:00 10,4 -4,3 26 14 NNE 1026,1 20 60
13.02.2019 10:00:00 10,4 -3,6 28 15 NNE 1025,8 20 60
13.02.2019 09:00:00 10,4 -3,6 28 15 NNE 1025,3 20 48
13.02.2019 08:00:00 9,8 -6,1 26 14 N 1024,8 20 6
13.02.2019 07:00:00 9,8 -7,0 22 12 N 1023,9 20 -
13.02.2019 06:00:00 9,8 -6,1 24 13 N 1023,7 15 -
13.02.2019 05:00:00 10,0 -5,1 24 13 N 1023,6 15 -
13.02.2019 04:00:00 10,0 -4,0 21 11 N 1023,6 15 -
13.02.2019 03:00:00 10,0 -5,9 18 10 N 1023,7 15 -
13.02.2019 02:00:00 10,0 -5,1 16 9 N 1023,6 15 -
13.02.2019 01:00:00 10,2 -5,0 21 11 N 1023,6 15 -
13.02.2019 00:00:00 10,2 -7,0 21 11 N 1023,6 15 -
12.02.2019 23:00:00 10,8 -4,0 18 10 N 1022,9 15 -
12.02.2019 22:00:00 11,2 -4,9 21 11 NNE 1022,6 15 -
12.02.2019 21:00:00 11,4 -1,7 15 8 N 1022,1 10 -
12.02.2019 20:00:00 11,6 -0,5 16 9 N 1020,9 15 -
12.02.2019 19:00:00 11,6 0,1 18 10 N 1020,6 15 -
12.02.2019 18:00:00 11,6 -0,2 18 10 N 1019,7 15 -
12.02.2019 17:00:00 11,6 -3,0 18 10 NNE 1018,9 18 0
12.02.2019 16:00:00 12,2 -1,7 16 9 NNE 1018,7 18 0
12.02.2019 15:00:00 12,2 -1,3 22 12 N 1018,5 18 24
12.02.2019 14:00:00 12,4 0,5 21 11 NNE 1018,4 20 0
12.02.2019 13:00:00 11,6 2,6 16 9 NNE 1018,4 20 6
12.02.2019 12:00:00 12,2 3,8 24 13 NNE 1018,1 20 0
12.02.2019 11:00:00 11,8 4,1 9 5 NNE 1017,7 12 36
12.02.2019 10:00:00 11,0 6,5 9 5 ESE 1017,2 12 18
12.02.2019 09:00:00 9,4 6,1 9 5 ONO 1016,5 12 6
12.02.2019 08:00:00 9,4 5,6 13 7 NO 1015,9 10 0
12.02.2019 07:00:00 8,8 6,4 4 2 N 1015,6 9 -
12.02.2019 06:00:00 8,6 6,4 4 2 N 1015,1 8 -
12.02.2019 05:00:00 9,0 4,6 18 10 ONO 1015,1 7 -
12.02.2019 04:00:00 11,0 1,2 11 6 NO 1014,7 10 -
12.02.2019 03:00:00 11,0 2,3 13 7 ONO 1014,6 10 -
12.02.2019 02:00:00 11,0 2,3 15 8 NNO 1015,1 10 -
12.02.2019 01:00:00 11,6 1,0 11 6 ONO 1014,8 10 -
12.02.2019 00:00:00 11,0 4,9 11 6 N 1014,8 10 -
11.02.2019 23:00:00 11,8 5,4 16 9 N 1014,5 12 -
11.02.2019 22:00:00 13,2 2,7 16 9 ONO 1014,5 12 -
11.02.2019 21:00:00 13,2 2,4 18 10 E 1014,5 12 -
11.02.2019 20:00:00 13,0 4,4 18 10 NO 1014,5 12 -
11.02.2019 19:00:00 13,8 6,4 11 6 N 1013,7 12 -
11.02.2019 18:00:00 13,8 8,2 13 7 NO 1013,6 12 -
11.02.2019 17:00:00 14,0 9,4 22 12 ONO 1013,6 13 0
11.02.2019 16:00:00 14,6 7,9 29 16 ONO 1013,5 13 18
11.02.2019 15:00:00 16,6 8,3 18 10 NNO 1013,1 15 60
11.02.2019 14:00:00 17,0 9,2 15 8 ONO 1013,4 18 60
11.02.2019 13:00:00 17,6 5,9 15 8 NO 1013,5 18 60

tt = Temperatura
td = dewpoint
ff = velocità del vento
dd = direzione del vento
ppp = reduced air pressure
vv = visibility
sd = ore di luce

Stazioni seguenti

WeatherPro
AMSI
MeteoEarth